Regional Weather Roundup
Issued by NWS Upton, NY

Current Version | Previous Version | Text Only | Print | Product List | Glossary Off
Versions: 1 2 3 4 5 6 7 8 9 10 11 12 13 14 15 16 17 18 19 20 21 22 23 24 25 26 27 28 29 30 31 32 33 34 35 36 37 38 39 40 41 42 43 44 45 46 47 48 49
028 ASUS41 KOKX 140804 RWROKX REGIONAL WEATHER ROUNDUP NATIONAL WEATHER SERVICE NEW YORK NY 300 AM EST SUN FEB 14 2016 NOTE: "FAIR" INDICATES FEW OR NO CLOUDS BELOW 12,000 FEET WITH NO SIGNIFICANT WEATHER AND/OR OBSTRUCTIONS TO VISIBILITY. NYZ071-072-176-178-NJZ106-104-140900- NEW YORK CITY METRO AREA CITY SKY/WX TMP DP RH WIND PRES REMARKS CENTRAL PARK CLEAR 5 -14 41 VRB7G22 30.36R WCI -7 LAGUARDIA APRT PTCLDY 7 -7 52 NW23G30 30.35R WCI -14 KENNEDY INTL PTCLDY 6 -16 35 NW21G26 30.37R WCI -14 NEWARK/LIBERTY PTCLDY 5 -15 39 NW18G30 30.36R WCI -15 BRNX BOT. GARD N/A 5 -8 56 N10 30.34R WCI -10 TETERBORO PTCLDY 5 -14 41 NW18G26 30.36R WCI -15 $$ NYZ177-179-078>081-140900- LONG ISLAND NEW YORK CITY SKY/WX TMP DP RH WIND PRES REMARKS FARMINGDALE MOCLDY 7 -8 50 N12G20 30.33R WCI -8 ISLIP CLEAR 4 -12 48 NW21G28 30.31R WCI -17 SHIRLEY PTCLDY 2 -11 54 NW15G24 30.33R WCI -17 RIVERHEAD N/A 3 -22 30 W6 30.29S WCI -8 WESTHAMPTON PTCLDY 0 -12 57 NW22G30 30.32R WCI -23 EAST HAMPTON FAIR 0 -14 50 NW12G29 30.29R WCI -17 MONTAUK POINT N/A 2 -9 60 NW23G41 30.28R WCI -21 $$ NYZ052-065-067-140900- HUDSON VALLEY CITY SKY/WX TMP DP RH WIND PRES REMARKS WHITE PLAINS PTCLDY 0 -14 51 NW16G25 30.29R WCI -20 NEWBURGH CLEAR -4 -17 54 NW12G25 30.33R WCI -22 MONTGOMERY CLEAR -2 -19 44 NW13G25 30.34R WCI -20 POUGHKEEPSIE CLEAR 1 -19 38 NW9 30.36R WCI -14 ALBANY CLEAR -11 -27 45 NW14 30.40R WCI -33 $$ NJZ001-105-106-008-010-013-015-019>022-104-140900- NEW JERSEY CITY SKY/WX TMP DP RH WIND PRES REMARKS NEWARK/LIBERTY PTCLDY 5 -15 39 NW18G30 30.36R WCI -15 TETERBORO PTCLDY 5 -14 41 NW18G26 30.36R WCI -15 CALDWELL CLEAR 4 -15 41 NW12 30.36R WCI -12 MORRISTOWN CLEAR 5 -17 36 NW15G23 30.35R WCI -13 SOMERVILLE PTCLDY 6 -12 43 NW10G17 30.36R WCI -9 SUSSEX PTCLDY 0 -13 54 VRB5 30.33R WCI -10 ANDOVER N/A 1 -14 49 VRB5 30.33R WCI -9 TRENTON CLEAR 6 -7 54 NW6 30.37R WCI -4 MILLVILLE CLEAR 12 -6 44 NW14G23 30.40R WCI -3 ATLANTIC CITY CLEAR 11 -9 40 NW16 30.38R WCI -6 WRIGHTSTOWN CLEAR 10 -8 44 NW16 30.37F WCI -7 TOMS RIVER CLEAR 7 -8 51 NW7 30.37R WCI -5 BELMAR CLEAR 7 -15 36 NW17G28 30.34R WCI -12 $$ PAZ047>061-062-071-140900- EASTERN PENNSYLVANIA CITY SKY/WX TMP DP RH WIND PRES REMARKS PHILADELPHIA PTCLDY 12 -11 35 NW13 30.41R WCI -3 ALLENTOWN PTCLDY 6 -10 47 NW8 30.36R WCI -7 SCRANTON CLOUDY 0 -12 57 NW10G21 30.32R WCI -16 $$ CTZ002-004>006-009-010-012-RIZ004-006-007-MAZ004-011-015-140900- SOUTHERN NEW ENGLAND IN CT CITY SKY/WX TMP DP RH WIND PRES REMARKS BRADLEY INTL PTCLDY -9 -27 41 NW9 30.30R WCI -26 HARTFORD CLEAR -6 -23 43 NW8 30.34R WCI -21 DANBURY CLEAR -6 -21 48 NW8 30.31R WCI -21 WTRBRY/OXFORD CLEAR -9 -29 37 NW8 30.25R WCI -26 BRIDGEPORT CLEAR -2 -18 46 NW14G22 30.35R WCI -21 MERIDEN PTCLDY -5 -23 41 NW16G25 30.31R WCI -27 NEW HAVEN CLEAR -4 -20 46 N13 30.33R WCI -23 CHESTER FAIR -4 -24 38 NW18G31 30.25R WCI -26 GROTON CLEAR -5 -12 72 NW17G28 30.28R WCI -27 WILLIMANTIC PTCLDY -7 -27 37 W12G23 30.27R WCI -26 IN RI CITY SKY/WX TMP DP RH WIND PRES REMARKS PROVIDENCE CLEAR -7 -24 43 NW14G25 30.24R WCI -28 BLOCK ISLAND PTCLDY -2 -13 60 NW18G39 30.21R WCI -24 WESTERLY CLEAR -5 -25 37 NW8G18 30.27R WCI -20 IN MA CITY SKY/WX TMP DP RH WIND PRES REMARKS BOSTON PTCLDY -8 -25 43 W24G33 30.21R WCI -34 WORCESTER CLEAR -14 -26 55 W21G37 30.08R WCI -41 WESTFIELD PTCLDY -10 -28 40 NW15 30.29R WCI -32 PROVINCETOWN LGT SNOW -2 -6 83 NW24G33 30.15R VSB 3/4 WCI -26 NANTUCKET CLOUDY 2 -11 54 NW20G31 30.14R WCI -19 $$ ANZ330-335-338-340-345-350-353-355-140900- COASTAL MARINE OBSERVATIONS STATION/POSITION TIME SKY/WX TEMP WIND PRES VSBY WAVE AIR SEA DIR/SP/G HT/PER (UTC) (F) (DEG/KT/KT) (MB) (MI) (FT/S) NY HARB ENTRANCE 0650 12 43 310/ 27/ 35 1026.3 6/ 5 4S FIRE IS NOT AVBL 20S FIRE ISLAND 0650 12 40 310/ 25/ 31 1025.8 8/ 7 GREAT SOUTH BAY NOT AVBL 23SW MTP 0750 8 44 300/ 29/ 37 1024.5 8/ 7 HUDSON CANYON 0650 17 47 1024.6 13/ 9 KINGS POINT 0700 7 32 360/ 18/ 25 1027.0 EXECUTION ROCKS NOT AVBL CENTRAL LI SOUND 0700 4 330/ 19/ 27 N/A 4/ 6 EASTERN LI SOUND 0700 6 39 290/ 27/ 41 N/A ROBBINS REEF 0700 6 320/ 20/ 25 1026.8 $$ >>>>>>>>>>>>>>>>>>>>>>>>>>>> KEY <<<<<<<<<<<<<<<<<<<<<<<<<<< > < > SKY/WX - SKY CONDITION/PRESENT WEATHER < > TMP - TEMPERATURE IN FAHRENHEIT < > DP - DEWPOINT IN FAHRENHEIT < > RH - RELATIVE HUMIDITY IN PERCENT < > WIND - DIRECTION AND SPEED IN MPH < > PRES - MEAN SEA LEVEL PRESSURE IN INCHES OF HG < > WCI - WIND CHILL INDEX < > VSB - VISIBILITY IN MILES < > HX - HEAT INDEX < > TC - TEMPERATURE IN CELSIUS < > VRB - VARIABLE WIND DIRECTION < > < >>>>>>>>>>>>>>>>>>>>>>>>>>>> KEY <<<<<<<<<<<<<<<<<<<<<<<<<<<

USA.gov is the U.S. government's official web portal to all federal, state and local government web resources and services.